TIANMU-1 12

Last updated on Wed Sep 23 2026 00:03:10 GMT+0000 (Coordinated Universal Time)

1 58646U 23205B 26265.58730966 .00003633 00000+0 13768-3 0 9998 2 58646 97.3422 285.3665 0007756 18.9693 341.1834 15.27502576152376
UTC large
Height (km)
Speed (km/s)
/
Latitude / Longitude
Inclination (degrees)
Orbital Period (minutes)
Azimuth
Elevation
Range (km)
Doppler Factor

Next 0 passes for location: London (51.5072 / 0.1276)

No passes found over London.
TIANMU-1 12